Powrót do katalogu

STARLINK-4328

AktywnyŁącznośćSSO
NORAD 53071·PAYLOAD·🇺🇸 United States

Wystrzelony Jul 11, 2022 z Vandenberg Space Force Base

Loading…

Następne Przeloty (najbliższe 24 godziny)

TLE

ŚwieżeSource: CelesTrak SupGP

Epoka: Sep 15, 2026, 01:32 UTC

1 53071C 22077AE  26258.06437500 -.00038569  00000+0 -11974-2 0  2586
2 53071  97.2857  73.8951 0001727  91.9966 200.9547 15.33455081    19

Śledź STARLINK-4328 w czasie rzeczywistym z AllMySat

Download on the App Store